DateTimeUTC,F1_A11,F1_S11,BsB_S11,BsG_S11,BsR_S11,BbsB_S11,BbsG_S11,BbsR_S11,BaB_A11,BaG_A11,BaR_A11,Tu_S11,T_S11,Uu_S11,U_S11,P_S11,T1_A11
2021-04-19T20:00:00Z,00000200,21000000,,,,,,,-000.04,0000.11,-000.05,17.4,24.9,,00.0,0653.5,31.1
2021-04-19T20:01:00Z,00000200,21000000,,,,,,,0000.25,0000.08,-000.31,17.4,24.9,,00.0,0653.5,31.1
2021-04-19T20:02:00Z,00000200,21000000,,,,,,,-000.24,-000.14,0000.20,17.4,24.9,,00.0,0653.5,31.1
2021-04-19T20:03:00Z,00000200,61000000,,,,,,,0000.71,0000.58,0000.39,17.4,24.9,,00.0,0653.5,31.1
2021-04-19T20:04:00Z,00000200,41000000,0002.26,0002.11,0001.45,0000.66,0000.52,0000.20,0001.00,0001.03,0000.72,17.4,24.7,,00.0,0654.4,31.1
2021-04-19T20:05:00Z,00000200,01000000,0003.20,0001.76,0001.29,0000.22,0000.27,-000.02,0001.18,0000.85,0000.84,17.4,24.6,,00.0,0654.5,31.1
2021-04-19T20:06:00Z,00000200,01000000,0003.46,0002.22,0001.05,0000.60,0000.58,0000.38,0001.48,0001.15,0000.83,17.4,24.6,,00.0,0654.5,31.0
2021-04-19T20:07:00Z,00000200,01000000,0003.03,0002.07,0001.46,0000.93,0000.40,0000.20,0000.52,0001.02,0000.86,17.4,24.5,,00.0,0654.5,31.0
2021-04-19T20:08:00Z,00000200,01000000,0002.97,0002.02,0001.42,0000.59,0000.49,0000.47,0001.26,0000.85,0000.63,17.3,24.5,,00.0,0654.5,31.1
2021-04-19T20:09:00Z,00000200,01000000,0002.73,0002.22,0001.27,0000.81,0000.50,0000.36,0001.43,0001.32,0001.01,17.3,24.5,,00.0,0654.5,31.0
2021-04-19T20:10:00Z,00000200,01000000,0003.29,0002.44,0001.18,0000.26,0000.41,0000.20,0001.19,0001.17,0000.86,17.3,24.5,,00.0,0654.5,31.0
2021-04-19T20:11:00Z,00000200,01000000,0003.41,0001.96,0001.24,0000.58,0000.49,-000.06,0000.85,0000.68,0000.77,17.3,24.4,,00.0,0654.5,31.0
2021-04-19T20:12:00Z,00000200,01000000,0003.47,0001.86,0001.51,0000.85,0000.41,0000.31,0001.05,0001.13,0000.96,17.3,24.4,,00.0,0654.5,31.0
2021-04-19T20:13:00Z,00000200,01000000,0002.89,0002.04,0001.48,0000.46,0000.41,0000.21,0001.22,0001.15,0000.73,17.2,24.4,,00.0,0654.5,31.0
2021-04-19T20:14:00Z,00000200,01000000,0003.30,0001.73,0001.38,0000.91,0000.58,0000.33,0001.34,0000.83,0001.01,17.2,24.4,,00.0,0654.5,31.0
2021-04-19T20:15:00Z,00000200,01000000,0003.34,0001.70,0001.18,0000.66,0000.51,0000.64,0000.82,0000.93,0000.47,17.2,24.4,,00.0,0654.5,31.0
2021-04-19T20:16:00Z,00000200,01000000,0002.93,0002.07,0001.34,0000.67,0000.33,0000.43,0001.07,0001.01,0000.88,17.1,24.4,,00.0,0654.5,31.0
2021-04-19T20:17:00Z,00000200,01000000,0002.88,0001.91,0001.45,0000.31,0000.39,0000.26,0001.30,0001.20,0000.77,17.1,24.3,,00.0,0654.5,31.0
2021-04-19T20:18:00Z,00000200,01000000,0002.79,0001.94,0001.13,0000.33,0000.38,0000.38,0001.32,0000.82,0001.07,17.1,24.3,,00.0,0654.5,31.0
2021-04-19T20:19:00Z,00000200,01000000,0003.44,0001.88,0001.27,0000.50,0000.29,0000.02,0001.04,0001.05,0000.60,17.1,24.3,,00.0,0654.5,31.0
2021-04-19T20:20:00Z,00000200,01000000,0003.24,0001.78,0001.24,0000.98,0000.44,0000.10,0001.17,0001.01,0000.76,17.0,24.3,,00.0,0654.5,31.0
2021-04-19T20:21:00Z,00000200,01000000,0003.31,0002.37,0001.32,0000.68,0000.39,0000.38,0000.90,0001.17,0001.31,17.0,24.3,,00.0,0654.5,31.0
2021-04-19T20:22:00Z,00000200,01000000,0002.35,0002.18,0001.60,0000.46,0000.27,0000.45,0001.31,0001.22,0000.59,17.1,24.3,,00.0,0654.6,31.0
2021-04-19T20:23:00Z,00000200,01000000,0002.75,0002.09,0001.18,-000.12,0000.35,-000.00,0001.07,0001.24,0000.97,17.2,24.3,,00.0,0654.5,31.0
2021-04-19T20:24:00Z,00000200,01000000,0003.49,0002.05,0001.33,0000.79,0000.41,0000.27,0001.15,0000.84,0000.56,17.3,24.3,,00.0,0654.5,31.0
2021-04-19T20:25:00Z,00000200,01000000,0002.81,0002.03,0001.47,0000.38,0000.22,0000.37,0001.05,0001.17,0000.85,17.4,24.4,,00.0,0654.5,31.1
2021-04-19T20:26:00Z,00000200,01000000,0002.74,0001.90,0001.24,0000.96,0000.46,0000.06,0000.80,0000.93,0000.73,17.5,24.4,,00.0,0654.5,31.1
2021-04-19T20:27:00Z,00000200,01000000,0003.36,0001.63,0001.40,0000.92,0000.40,0000.32,0001.12,0001.06,0000.66,17.5,24.4,,00.0,0654.5,31.1
2021-04-19T20:28:00Z,00000200,01000000,0002.52,0002.00,0001.03,0000.85,0000.51,-000.03,0000.91,0000.45,0000.69,17.6,24.4,,00.0,0654.5,31.1
2021-04-19T20:29:00Z,00000200,01000000,0002.42,0002.30,0001.05,0000.35,0000.38,0000.41,0000.87,0000.91,0000.46,17.5,24.5,,00.0,0654.6,31.1
2021-04-19T20:30:00Z,00000200,01000000,0003.01,0002.03,0001.17,0000.38,0000.26,0000.35,0001.11,0000.80,0000.81,17.5,24.5,,00.0,0654.6,31.1
2021-04-19T20:31:00Z,00000200,01000000,0002.94,0001.95,0001.11,0000.84,0000.14,0000.33,0000.92,0000.72,0000.74,17.5,24.4,,00.0,0654.6,31.1
2021-04-19T20:32:00Z,00000200,01000000,0003.67,0002.10,0001.09,0000.65,0000.06,0000.13,0000.69,0001.06,0000.72,17.4,24.4,,00.0,0654.6,31.1
2021-04-19T20:33:00Z,00000200,01000000,0002.71,0001.91,0001.09,0000.60,0000.26,0000.19,0001.16,0000.85,0000.55,17.4,24.4,,00.0,0654.6,31.1
2021-04-19T20:34:00Z,00000200,01000000,0003.19,0001.83,0001.21,0000.85,0000.54,0000.18,0001.10,0001.09,0001.06,17.3,24.4,,00.0,0654.6,31.0
2021-04-19T20:35:00Z,00000200,01000000,0002.93,0001.81,0001.36,0000.70,0000.24,0000.23,0001.03,0001.06,0000.63,17.3,24.4,,00.0,0654.6,31.0
2021-04-19T20:36:00Z,00000200,01000000,0002.95,0001.57,0001.29,0000.22,-000.01,0000.25,0001.03,0000.85,0000.92,17.3,24.4,,00.0,0654.6,31.0
2021-04-19T20:37:00Z,00000200,01000000,0003.27,0002.02,0001.23,0000.54,0000.54,0000.29,0001.17,0001.17,0000.99,17.3,24.3,,00.0,0654.6,31.0
2021-04-19T20:38:00Z,00000200,01000000,0002.89,0001.93,0001.47,0000.58,0000.70,0000.32,0001.13,0001.07,0000.93,17.4,24.4,,00.0,0654.6,31.0
2021-04-19T20:39:00Z,00000200,01000000,0002.64,0001.43,0001.27,0000.74,0000.29,0000.22,0001.39,0001.35,0000.68,17.5,24.4,,00.0,0654.6,31.1
2021-04-19T20:40:00Z,00000200,01000000,0002.28,0002.16,0001.21,-000.01,0000.22,0000.11,0000.82,0000.75,0000.88,17.6,24.5,,00.0,0654.6,31.1
2021-04-19T20:41:00Z,00000200,01000000,0003.28,0002.10,0001.29,0000.65,0000.54,0000.23,0001.44,0001.11,0000.81,17.7,24.5,,00.0,0654.6,31.1
2021-04-19T20:42:00Z,00000200,01000000,0002.49,0001.83,0001.38,0000.23,0000.42,0000.23,0000.87,0000.98,0000.86,17.7,24.5,,00.0,0654.6,31.1
2021-04-19T20:43:00Z,00000200,01000000,0002.93,0002.07,0001.30,0000.43,0000.47,0000.26,0001.07,0001.02,0000.63,17.7,24.5,,00.0,0654.6,31.1
2021-04-19T20:44:00Z,00000200,01000000,0003.03,0002.12,0000.95,0000.75,0000.47,0000.24,0000.88,0000.68,0000.54,17.6,24.5,,00.0,0654.6,31.1
2021-04-19T20:45:00Z,00000200,01000000,0002.60,0001.91,0001.25,0001.18,0000.41,0000.56,0001.12,0001.10,0000.88,17.6,24.5,,00.0,0654.6,31.1
2021-04-19T20:46:00Z,00000200,01000000,0002.17,0001.68,0001.30,0000.72,0000.40,0000.15,0000.95,0000.83,0000.64,17.5,24.5,,00.0,0654.6,31.1
2021-04-19T20:47:00Z,00000200,01000000,0002.69,0001.88,0000.99,0000.58,0000.45,0000.08,0001.15,0000.91,0000.86,17.5,24.5,,00.0,0654.6,31.1
2021-04-19T20:48:00Z,00000200,01000000,0003.67,0001.64,0001.05,0000.84,0000.24,0000.23,0001.09,0000.98,0000.61,17.5,24.5,,00.0,0654.6,31.1
2021-04-19T20:49:00Z,00000200,01000000,0003.04,0001.90,0001.01,0000.29,0000.28,0000.17,0000.98,0001.11,0000.53,17.4,24.4,,00.0,0654.6,31.0
2021-04-19T20:50:00Z,00000200,01000000,0002.77,0001.84,0001.13,0000.98,0000.17,0000.32,0001.01,0000.82,0001.15,17.4,24.4,,00.0,0654.6,31.0
2021-04-19T20:51:00Z,00000200,01000000,0002.55,0001.71,0001.06,0000.70,0000.35,0000.35,0001.00,0000.73,0000.79,17.3,24.4,,00.0,0654.6,31.0
2021-04-19T20:52:00Z,00000200,01000000,0002.99,0001.90,0001.05,0000.36,0000.42,-000.05,0000.80,0001.27,0000.64,17.3,24.4,,00.0,0654.6,31.0
2021-04-19T20:53:00Z,00000200,01000000,0002.33,0001.97,0001.17,0000.29,0000.21,0000.27,0001.46,0001.15,0001.11,17.5,24.4,,00.0,0654.6,31.1
2021-04-19T20:54:00Z,00000200,01000000,0002.76,0001.67,0001.13,0000.42,0000.58,0000.32,0000.60,0000.85,0000.55,17.5,24.5,,00.0,0654.6,31.1
2021-04-19T20:55:00Z,00000200,01000000,0003.20,0001.98,0001.16,0000.79,0000.52,0000.53,0001.32,0000.76,0000.77,17.6,24.5,,00.0,0654.6,31.1
2021-04-19T20:56:00Z,00000200,01000000,0002.59,0002.03,0001.16,0000.24,0000.22,0000.25,0000.77,0000.78,0000.76,17.6,24.5,,00.0,0654.6,31.1
2021-04-19T20:57:00Z,00000200,41000000,,,,,,,0000.99,0001.35,0000.71,17.6,24.5,,00.0,0654.6,31.1
2021-04-19T20:58:00Z,00000200,61000000,,,,,,,-000.13,-000.77,-000.28,17.2,24.6,,00.0,0653.7,31.1
2021-04-19T20:59:00Z,00000200,21000000,,,,,,,-000.30,-000.13,-000.32,17.2,24.7,,00.0,0653.7,31.1
